This is the latest recevied weather packets stored in our database for station/object HB9KBJ-4. If no packets are shown the sender has not sent any weather packets the latest 10 day(s).
| Time | Temp. | Humidity | Pressure | Rain* | Wind** | Luminosity | Snow |
|---|---|---|---|---|---|---|---|
| 1777991185 | 18.33° C | 56% | - | 0.51 mm | - | - | - |
| 1777990885 | 17.78° C | 56% | - | 0.51 mm | - | - | - |
| 1777990584 | 17.78° C | 56% | - | 0.51 mm | - | - | - |
| 1777989984 | 17.78° C | 57% | - | 0.51 mm | - | - | - |
| 1777989383 | 17.78° C | 56% | - | 0.51 mm | - | - | - |
| 1777989083 | 17.78° C | 57% | - | 0.51 mm | - | - | - |
| 1777988782 | 17.22° C | 58% | - | 0.51 mm | - | - | - |
| 1777988482 | 17.22° C | 59% | - | 0.51 mm | - | - | - |
| 1777988182 | 16.67° C | 58% | - | 0.51 mm | - | - | - |
| 1777987881 | 17.22° C | 58% | - | 0.51 mm | - | - | - |
| 1777987581 | 17.22° C | 57% | - | 0.51 mm | - | - | - |
| 1777987280 | 17.78° C | 55% | - | 0.51 mm | - | - | - |
| 1777986980 | 17.78° C | 56% | - | 0.51 mm | - | - | - |
| 1777986680 | 17.78° C | 55% | - | 0.51 mm | - | - | - |
| 1777986379 | 17.78° C | 54% | - | 0.51 mm | - | - | - |
| 1777985779 | 17.78° C | 53% | - | 0.51 mm | - | - | - |
| 1777985479 | 17.78° C | 52% | - | 0.51 mm | - | - | - |
| 1777983677 | 18.33° C | 54% | - | 0.51 mm | - | - | - |
| 1777982776 | 18.33° C | 53% | - | 0.51 mm | - | - | - |
| 1777980073 | 18.89° C | 54% | - | 0.51 mm | - | - | - |
| 1777979773 | 18.33° C | 57% | - | 0.51 mm | - | - | - |
| 1777979173 | 17.22° C | 60% | - | 0.51 mm | - | - | - |
| 1777978572 | 16.67° C | 62% | - | 0.51 mm | - | - | - |
| 1777978272 | 16.67° C | 63% | - | 0.51 mm | - | - | - |
| 1777977671 | 16.67° C | 63% | - | 0.51 mm | - | - | - |
* Rain since midnight (hover to see other rain measurements)
** Current wind speed in m/s (hover to see current wind gust speed)